Regional Weather Roundup
Issued by NWS Jackson, KY

Home | Current Version | Previous Version | Text Only | Print | Product List | Glossary On
Versions: 1 2 3 4 5 6 7 8 9 10 11 12 13 14 15 16 17 18 19 20 21 22 23 24 25 26 27 28 29 30 31 32 33 34 35 36 37 38 39 40 41 42 43 44 45 46 47 48 49 50
000
ASUS43 KJKL 261311
RWRJKL

EAST KENTUCKY HOURLY WEATHER ROUNDUP
NATIONAL WEATHER SERVICE JACKSON KY
800 AM EST WED NOV 26 2014

NOTE: "FAIR" INDICATES FEW OR NO CLOUDS BELOW 12,000 FEET WITH
NO SIGNIFICANT WEATHER AND/OR OBSTRUCTIONS TO VISIBILITY.

* THESE REPORTS ARE NOT UNDER NWS QUALITY CONTROL AND MAY NOT
  REPORT WEATHER SUCH AS PRECIPITATION AND FOG.

KYZ079-080-083-085-087-088-110-112-115-119-120-261400
...EASTERN KENTUCKY...

CITY           SKY/WX    TMP DP  RH WIND       PRES   REMARKS
JACKSON        CLOUDY    33  26  75 CALM      30.03R
LONDON         CLOUDY    37  28  70 NW5       30.06R WCI  33
SOMERSET*      CLEAR     32  28  86 NW3       30.10R
MONTICELLO*    CLEAR     30  28  92 CALM      30.12R
HARLAN APT*    CLOUDY    37  30  75 CALM      30.02S
BLACK MTN*       N/A     30  30 100 CALM        N/A
PIKEVILLE APT* CLOUDY    36  30  80 CALM      30.04R
BIG SANDY*     CLOUDY    36  30  79 N3        30.03S
MOREHEAD APT*  CLOUDY    32  28  86 NW5       30.09R FOG     WCI  27
$$

KYZ035-036-041-042-044-050-067-078-099-261400
...CENTRAL KENTUCKY...

CITY           SKY/WX    TMP DP  RH WIND       PRES   REMARKS
MT STERLING*   PTCLDY    30  30 100 NE5       30.08R FOG     WCI  25
FLEMING/MASON* CLEAR     28  27  93 N5        30.09R FOG     WCI  23
DANVILLE*      CLEAR     28  28 100 NW6       30.10R WCI  22
RICHMOND*      CLEAR     30  28  93 W5        30.07R WCI  25
LEXINGTON      CLEAR     26  24  92 NW5       30.09R FOG     WCI  20
FRANKFORT      CLEAR     25  23  92 NW3       30.11R FOG
$$

KYZ091>093-OHZ055-061-077-WVZ005-015-034-035-042-261400
...SOUTHERN OHIO/WEST VIRGINIA...

CITY           SKY/WX    TMP DP  RH WIND       PRES   REMARKS
COVINGTON      MOCLDY    27  22  81 N5        30.12R WCI  22
COLUMBUS       CLOUDY    29  24  82 N7        30.10F WCI  22
DAYTON         CLOUDY    29  25  85 N7        30.13R WCI  22
WILMINGTON     CLOUDY    27  23  85 N10       30.11R WCI  17
HUNTINGTON     CLOUDY    34  27  75 CALM      30.07R
CHARLESTON     LGT SNOW  34  31  88 SE7       30.04R FOG     WCI  28
PINEVILLE*     LGT SNOW  36  36 100 MISG      30.07R
BECKLEY        LGT SNOW  33  32  96 CALM      29.99R VSB 3/4
BLUEFIELD      SNOW      34  31  88 VRB3      29.99R VSB 1/2
$$

VAZ002-007-008-TNZ017-027-036-066-071-261400
...SOUTHWEST VIRGINIA/EAST TENNESSEE...

CITY           SKY/WX    TMP DP  RH WIND       PRES   REMARKS
WISE*          LGT SNOW  34  34 100 CALM      29.97F
JONESVILLE*    CLOUDY    37  34  87 CALM      30.05R
ABINGDON*      RAIN      38  36  90 E3        30.01R
BRISTOL        LGT RAIN  39  38  96 NE5       30.01R
KNOXVILLE      PTCLDY    39  31  72 SW6       30.03R WCI  35
OAK RIDGE      PTCLDY    40  31  70 CALM      30.05R
CROSSVILLE     CLEAR     33  26  75 NW6       30.06R WCI  28
NASHVILLE      PTCLDY    29  27  92 CALM      30.14S
$$

...KEY TO REMARKS...
VSB - VISIBILITY IN MILES
WCI - WIND CHILL INDEX
HX  - HEAT INDEX

$$


USA.gov is the U.S. government's official web portal to all federal, state and local government web resources and services.